FENGYUN 1C DEB

Satellite information

Favourite Embed

Satellite Type and Status

DEBRISIN ORBIT

Key statistics

Satellite FENGYUN 1C DEB at a glance.

Uptime

9661

Days in orbit

Revolutions

≈ 14.1

Per day

Orbit

SSO

Sun Synchronous Orbit

Inclination

98.7

Latest

Satellite identification and parameters

Extended collection of information and parameters for FENGYUN 1C DEB.

Object identification

Identified? True

Debris? True

Object name: FENGYUN 1C DEB

International designator: 1999-025ARS

Object number (NORAD): 30708

Object ID (CCSDS): 30708

Country: PEOPLES REPUBLIC OF CHINA (PRC)

Current information (Y/N): Y

RCS size: SMALL

Orbital parameters

Period: 101.973 minutes

Inclination: 98.6944 deg

SMA: 7230.216 km

Apoapsis: 858.015 km

Periapsis: 846.147 km

RAAN: 308.8047 deg

Eccentricy: 0.00082071

Argument of periapsis: 0.4803 deg

Mean anomaly: 151.7273 deg

Mean motion: 14.1213384 rev/day

Mean motion (dot): 0.00000393 rev/day2

B* drag term: 0.00023732475 1/REarth

Two-line elements (TLE)

Creation date: Oct. 20, 2025, 6:08 p.m.

Reference frame: TEME

Reference center: EARTH

Epoch: Oct. 20, 2025, 1:11 p.m. UTC

TLE line 0: 0 FENGYUN 1C DEB

TLE line 1: 1 30708U 99025ARS 25293.54977852 .00000393 00000-0 23732-3 0 9996

TLE line 2: 2 30708 98.6944 308.8047 0008207 0.4803 151.7273 14.12133840960853

Live tracking on map

Real-time ground track for satellite FENGYUN 1C DEB.

In-orbit conjunctions

A list of the most updated potential collisions computed for object FENGYUN 1C DEB.

Target Orbit TCA Probability of collision Miss distance Type
CZ-6A DEB LEO 2025-02-03 14:51:21 0.0002091462 692.0 (m) DEBRIS
COSMOS 1275 DEB LEO 2024-09-01 12:32:45 0.0001052319 110.0 (m) DEBRIS
COSMOS 2360 LEO 2024-06-14 22:38:54 0.0005189288 172.0 (m) PAYLOAD

Associated space launch

Chinese polar orbiting meteorological satellite

FENGYUN 1C DEB was lifted into orbit during the mission ‘Long March 4B | Feng Yun 1C’, on board a Long March 4B space rocket.

The launch took place on May 10, 1999, 1:33 a.m. from Launch Complex 7.

For more information about the launch, click the button.

Launch to space Long March 4B | Feng Yun 1C
Long March 4B | Feng Yun 1C

Agency: N/A

Status: Launch Successful

Launch date: May 10, 1999, 1:33 a.m. UTC

Rocket: Long March 4B

Launch pad: Launch Complex 7

Location: Taiyuan Satellite Launch Center, People's Republic of China

...

Latest news about this satellite

There are no fresh news available about this satellite. Check back as we update our databases every day.


Newsletter sign-up

Weekly statistics, charts and insights to help you stay on top of the space industry.